This is the latest recevied weather packets stored in our database for station/object R2AKT-13. If no packets are shown the sender has not sent any weather packets the latest 10 day(s).
| Time | Temp. | Humidity | Pressure | Rain* | Wind** | Luminosity | Snow |
|---|---|---|---|---|---|---|---|
| 1777562149 | 3.89° C | 52% | 997.1 hPa | - | 1.34 m/s, 303° | - | - |
| 1777561644 | 3.89° C | 53% | 997.1 hPa | - | 0.45 m/s, 195° | - | - |
| 1777561164 | 3.89° C | 50% | 997 hPa | - | 1.34 m/s, 259° | - | - |
| 1777560629 | 3.33° C | 55% | 997.1 hPa | - | 1.79 m/s, 271° | - | - |
| 1777560074 | 3.33° C | 55% | 997.1 hPa | - | 1.34 m/s, 260° | - | - |
| 1777559519 | 3.89° C | 52% | 997.1 hPa | - | 1.34 m/s, 202° | - | - |
| 1777558994 | 3.89° C | 49% | 997.1 hPa | - | 0.89 m/s, 177° | - | - |
| 1777558449 | 3.33° C | 49% | 997.3 hPa | - | 1.34 m/s, 266° | - | - |
| 1777557958 | 3.89° C | 49% | 997.3 hPa | - | 1.79 m/s, 293° | - | - |
| 1777557409 | 3.89° C | 49% | 997.3 hPa | - | 1.79 m/s, 285° | - | - |
| 1777556909 | 4.44° C | 48% | 997.4 hPa | - | 0.89 m/s, 195° | - | - |
| 1777556364 | 4.44° C | 50% | 997.3 hPa | - | 0.89 m/s, 182° | - | - |
| 1777555859 | 4.44° C | 49% | 997.4 hPa | - | 0.89 m/s, 126° | - | - |
| 1777555314 | 4.44° C | 49% | 997.3 hPa | - | 0.89 m/s, 170° | - | - |
| 1777554744 | 3.89° C | 48% | 997.3 hPa | - | 0.89 m/s, 281° | - | - |
| 1777554194 | 3.89° C | 47% | 997.3 hPa | - | 1.34 m/s, 290° | - | - |
| 1777553609 | 3.33° C | 46% | 997.4 hPa | - | 2.24 m/s, 306° | - | - |
| 1777553019 | 3.33° C | 46% | 997.5 hPa | - | 1.79 m/s, 300° | - | - |
| 1777552424 | 3.89° C | 49% | 997.4 hPa | - | 0.89 m/s, 305° | - | - |
| 1777551844 | 3.33° C | 49% | 997.5 hPa | - | 1.34 m/s, 296° | - | - |
| 1777551354 | 3.89° C | 49% | 997.6 hPa | - | 0.45 m/s, 295° | - | - |
| 1777550809 | 3.33° C | 50% | 997.7 hPa | - | 0.45 m/s, 142° | - | - |
| 1777550319 | 3.89° C | 51% | 997.6 hPa | - | 0.45 m/s, 279° | - | - |
| 1777549794 | 3.89° C | 53% | 997.7 hPa | - | 0.45 m/s, 250° | - | - |
| 1777549214 | 3.89° C | 52% | 997.8 hPa | - | 0.45 m/s, 255° | - | - |
* Rain since midnight (hover to see other rain measurements)
** Current wind speed in m/s (hover to see current wind gust speed)